Location: Ailly
(50.0793°N, 1.9944°E)
Time: 20:56:15
(UTC+00:00)

Cosmos 2154 Rocket - Pass Details

Date: 15 January 2026
Orbit: 965 x 997 km, 82.9° (Epoch: 14 February)

Event Time Altitude Azimuth Distance (km) Brightness Sun altitude
Rises 06:20:40 0° 207° (SSW) 3,696 6.9 -13.1°
Reaches altitude 10° 06:23:17 10° 213° (SSW) 2,748 6.2 -12.7°
Maximum altitude 06:29:21 48° 287° (WNW) 1,266 4.2 -11.7°
Drops below altitude 10° 06:35:26 10° 1° (N) 2,744 6.2 -10.8°
Sets 06:38:04 0° 7° (N) 3,691 6.9 -10.4°
